| time (UTC) | temp C | wind direction | speed KPH | gust KPH | rain 1hr cm | rain 24hr cm | rain mn cm | humidity % | barometer mb |
| 20260507203010 | 10 | 257 | 9.7 | 24.1 | 0.00 | 0.00 | 0.00 | 44 | 1011.5 |
| 20260507202504 | 11 | 295 | 14.5 | 24.1 | 0.00 | 0.00 | 0.00 | 43 | 1011.7 |
| 20260507201513 | 11 | 333 | 3.2 | 22.5 | 0.00 | 0.00 | 0.00 | 42 | 1011.9 |
| 20260507200503 | 11 | 242 | 9.7 | 24.1 | 0.00 | 0.00 | 0.00 | 43 | 1012.0 |
| 20260507195003 | 11 | 266 | 16.1 | 29.0 | 0.00 | 0.00 | 0.00 | 47 | 1012.0 |
| 20260507194515 | 11 | 242 | 6.4 | 29.0 | 0.00 | 0.00 | 0.00 | 45 | 1012.0 |
| 20260507194006 | 11 | 246 | 8.0 | 27.4 | 0.00 | 0.00 | 0.00 | 43 | 1012.1 |
| 20260507193009 | 10 | 294 | 3.2 | 20.9 | 0.00 | 0.00 | 0.00 | 44 | 1012.1 |
| 20260507192004 | 11 | 296 | 11.3 | 20.9 | 0.00 | 0.00 | 0.00 | 41 | 1012.2 |
| 20260507191507 | 11 | 266 | 11.3 | 22.5 | 0.00 | 0.00 | 0.00 | 41 | 1012.3 |
| 20260507191007 | 11 | 318 | 9.7 | 22.5 | 0.00 | 0.00 | 0.00 | 44 | 1012.3 |
| 20260507190013 | 10 | 69 | 3.2 | 29.0 | 0.00 | 0.00 | 0.00 | 41 | 1012.3 |
| 20260507185503 | 11 | 244 | 8.0 | 29.0 | 0.00 | 0.00 | 0.00 | 43 | 1012.5 |
| 20260507184519 | 10 | 326 | 16.1 | 22.5 | 0.00 | 0.00 | 0.00 | 42 | 1012.6 |
| 20260507183503 | 10 | 281 | 12.9 | 22.5 | 0.00 | 0.00 | 0.00 | 42 | 1012.5 |
| 20260507182508 | 10 | 314 | 11.3 | 24.1 | 0.00 | 0.00 | 0.00 | 42 | 1012.5 |
| 20260507182011 | 10 | 288 | 14.5 | 24.1 | 0.00 | 0.00 | 0.00 | 44 | 1012.6 |
| 20260507181516 | 9 | 326 | 12.9 | 24.1 | 0.00 | 0.00 | 0.00 | 44 | 1012.5 |
| 20260507180011 | 10 | 283 | 11.3 | 25.7 | 0.00 | 0.00 | 0.00 | 42 | 1012.6 |
| 20260507174511 | 9 | 246 | 9.7 | 25.7 | 0.00 | 0.00 | 0.00 | 43 | 1012.7 |
| 20260507174004 | 8 | 329 | 9.7 | 25.7 | 0.00 | 0.00 | 0.00 | 46 | 1012.8 |
| 20260507173506 | 9 | 334 | 14.5 | 25.7 | 0.00 | 0.00 | 0.00 | 43 | 1012.9 |
| 20260507173031 | 9 | 255 | 11.3 | 25.7 | 0.00 | 0.00 | 0.00 | 47 | 1012.9 |
| 20260507172504 | 9 | 311 | 14.5 | 27.4 | 0.00 | 0.00 | 0.00 | 42 | 1012.9 |
| 20260507172007 | 10 | 288 | 9.7 | 27.4 | 0.00 | 0.00 | 0.00 | 44 | 1013.0 |
| 20260507170507 | 10 | 5 | 9.7 | 22.5 | 0.00 | 0.00 | 0.00 | 47 | 1013.3 |
| 20260507170013 | 10 | 333 | 11.3 | 29.0 | 0.00 | 0.00 | 0.00 | 45 | 1013.3 |
| 20260507165502 | 10 | 324 | 9.7 | 29.0 | 0.00 | 0.00 | 0.00 | 49 | 1013.5 |
| 20260507164519 | 9 | 11 | 8.0 | 24.1 | 0.00 | 0.00 | 0.00 | 47 | 1013.5 |
| 20260507163015 | 9 | 259 | 12.9 | 29.0 | 0.00 | 0.00 | 0.00 | 46 | 1013.7 |
| 20260507161520 | 9 | 284 | 16.1 | 29.0 | 0.00 | 0.00 | 0.00 | 46 | 1013.8 |
| 20260507161006 | 9 | 344 | 11.3 | 20.9 | 0.00 | 0.00 | 0.00 | 50 | 1013.9 |
| 20260507155508 | 8 | 320 | 9.7 | 27.4 | 0.00 | 0.00 | 0.00 | 50 | 1014.0 |
| 20260507154515 | 8 | 259 | 12.9 | 25.7 | 0.00 | 0.00 | 0.00 | 48 | 1013.9 |
| 20260507154002 | 8 | 280 | 12.9 | 27.4 | 0.00 | 0.00 | 0.00 | 52 | 1013.9 |
| 20260507153017 | 8 | 276 | 14.5 | 27.4 | 0.00 | 0.00 | 0.00 | 50 | 1013.9 |
| 20260507152007 | 8 | 298 | 9.7 | 25.7 | 0.00 | 0.00 | 0.00 | 52 | 1013.8 |
| 20260507150023 | 8 | 278 | 14.5 | 27.4 | 0.00 | 0.00 | 0.00 | 49 | 1013.6 |
| 20260507145513 | 8 | 288 | 9.7 | 27.4 | 0.00 | 0.00 | 0.00 | 49 | 1013.6 |
| 20260507145007 | 8 | 265 | 16.1 | 27.4 | 0.00 | 0.00 | 0.00 | 48 | 1013.6 |
| 20260507144516 | 8 | 291 | 9.7 | 30.6 | 0.00 | 0.00 | 0.00 | 50 | 1013.6 |
| 20260507144009 | 8 | 275 | 12.9 | 30.6 | 0.00 | 0.00 | 0.00 | 49 | 1013.8 |
| 20260507143503 | 8 | 274 | 12.9 | 30.6 | 0.00 | 0.00 | 0.00 | 51 | 1013.8 |
| 20260507143017 | 8 | 289 | 12.9 | 30.6 | 0.00 | 0.00 | 0.00 | 51 | 1013.7 |
| 20260507142012 | 7 | 292 | 16.1 | 29.0 | 0.00 | 0.00 | 0.00 | 51 | 1013.9 |
| 20260507141521 | 7 | 284 | 17.7 | 27.4 | 0.00 | 0.00 | 0.00 | 51 | 1014.0 |
| 20260507141006 | 7 | 263 | 14.5 | 27.4 | 0.00 | 0.00 | 0.00 | 51 | 1014.0 |
| 20260507140508 | 7 | 294 | 12.9 | 27.4 | 0.00 | 0.00 | 0.00 | 53 | 1014.0 |
| 20260507134007 | 7 | 250 | 6.4 | 19.3 | 0.00 | 0.00 | 0.00 | 57 | 1014.0 |
| 20260507133004 | 7 | 234 | 9.7 | 20.9 | 0.00 | 0.00 | 0.00 | 58 | 1013.7 |
| 20260507132503 | 7 | 248 | 8.0 | 20.9 | 0.00 | 0.00 | 0.00 | 58 | 1013.7 |
| 20260507132005 | 7 | 252 | 9.7 | 19.3 | 0.00 | 0.00 | 0.00 | 57 | 1013.7 |
| 20260507131003 | 6 | 295 | 6.4 | 17.7 | 0.00 | 0.00 | 0.00 | 60 | 1013.6 |
| 20260507124509 | 6 | 246 | 8.0 | 17.7 | 0.00 | 0.00 | 0.00 | 64 | 1013.5 |
| 20260507123503 | 6 | 246 | 6.4 | 16.1 | 0.00 | 0.00 | 0.00 | 66 | 1013.5 |
| 20260507123009 | 5 | 259 | 4.8 | 16.1 | 0.00 | 0.00 | 0.00 | 68 | 1013.5 |
| 20260507122011 | 5 | 312 | 6.4 | 14.5 | 0.00 | 0.00 | 0.00 | 69 | 1013.6 |
| 20260507121510 | 5 | 313 | 4.8 | 14.5 | 0.00 | 0.00 | 0.00 | 71 | 1013.5 |
| 20260507121004 | 5 | 275 | 1.6 | 14.5 | 0.00 | 0.00 | 0.00 | 71 | 1013.5 |
| 20260507120505 | 5 | 299 | 4.8 | 14.5 | 0.00 | 0.00 | 0.00 | 72 | 1013.5 |
| 20260507120005 | 4 | 254 | 8.0 | 17.7 | 0.00 | 0.00 | 0.00 | 72 | 1013.4 |
| 20260507115503 | 4 | 268 | 3.2 | 17.7 | 0.00 | 0.00 | 0.00 | 73 | 1013.4 |
| 20260507114506 | 3 | 280 | 6.4 | 14.5 | 0.00 | 0.00 | 0.00 | 74 | 1013.3 |
| 20260507114003 | 3 | 280 | 3.2 | 14.5 | 0.00 | 0.00 | 0.00 | 75 | 1013.2 |
| 20260507113012 | 3 | 263 | 3.2 | 11.3 | 0.00 | 0.00 | 0.00 | 76 | 1013.1 |
| 20260507112004 | 2 | 224 | 3.2 | 6.4 | 0.00 | 0.00 | 0.00 | 81 | 1013.0 |
| 20260507110503 | 1 | 256 | 0.0 | 3.2 | 0.00 | 0.00 | 0.00 | 81 | 1012.9 |
| 20260507110014 | 1 | 256 | 0.0 | 3.2 | 0.00 | 0.00 | 0.00 | 81 | 1012.7 |
| 20260507105505 | 1 | 252 | 0.0 | 3.2 | 0.00 | 0.00 | 0.00 | 79 | 1012.7 |
| 20260507105006 | 1 | 244 | 0.0 | 0.0 | 0.00 | 0.00 | 0.00 | 80 | 1012.7 |
| 20260507104512 | 1 | 244 | 0.0 | 0.0 | 0.00 | 0.00 | 0.00 | 80 | 1012.8 |
| 20260507104003 | 1 | 244 | 0.0 | 0.0 | 0.00 | 0.00 | 0.00 | 79 | 1012.7 |
| 20260507103503 | 1 | 245 | 0.0 | 0.0 | 0.00 | 0.00 | 0.00 | 79 | 1012.5 |
| 20260507103009 | 1 | 246 | 0.0 | 0.0 | 0.00 | 0.00 | 0.00 | 79 | 1012.4 |
| 20260507102503 | 1 | 246 | 0.0 | 0.0 | 0.00 | 0.00 | 0.00 | 78 | 1012.3 |
| 20260507102006 | 1 | 246 | 0.0 | 1.6 | 0.00 | 0.00 | 0.00 | 78 | 1012.3 |
| 20260507101517 | 1 | 246 | 0.0 | 3.2 | 0.00 | 0.00 | 0.00 | 77 | 1012.3 |
| 20260507101004 | 1 | 246 | 0.0 | 3.2 | 0.00 | 0.00 | 0.00 | 76 | 1012.3 |
| 20260507100504 | 1 | 246 | 0.0 | 3.2 | 0.00 | 0.00 | 0.00 | 76 | 1012.3 |
| 20260507100025 | 1 | 246 | 0.0 | 3.2 | 0.00 | 0.00 | 0.00 | 77 | 1012.3 |
| 20260507095505 | 1 | 246 | 0.0 | 3.2 | 0.00 | 0.00 | 0.00 | 75 | 1012.3 |
| 20260507095008 | 1 | 240 | 0.0 | 3.2 | 0.00 | 0.00 | 0.00 | 75 | 1012.3 |
| 20260507094524 | 2 | 240 | 1.6 | 3.2 | 0.00 | 0.00 | 0.00 | 73 | 1012.4 |
| 20260507094007 | 2 | 240 | 1.6 | 3.2 | 0.00 | 0.00 | 0.00 | 73 | 1012.3 |
| 20260507093503 | 2 | 271 | 0.0 | 3.2 | 0.00 | 0.00 | 0.00 | 72 | 1012.3 |
| 20260507093021 | 2 | 271 | 0.0 | 3.2 | 0.00 | 0.00 | 0.00 | 71 | 1012.3 |
| 20260507092504 | 2 | 271 | 1.6 | 4.8 | 0.00 | 0.00 | 0.00 | 71 | 1012.3 |
| 20260507092006 | 3 | 284 | 0.0 | 4.8 | 0.00 | 0.00 | 0.00 | 70 | 1012.3 |
| 20260507091519 | 3 | 279 | 1.6 | 6.4 | 0.00 | 0.00 | 0.00 | 69 | 1012.4 |
| 20260507091009 | 3 | 276 | 3.2 | 6.4 | 0.00 | 0.00 | 0.00 | 67 | 1012.4 |
| 20260507090504 | 3 | 273 | 3.2 | 6.4 | 0.00 | 0.00 | 0.00 | 68 | 1012.5 |
| 20260507090016 | 3 | 268 | 1.6 | 6.4 | 0.00 | 0.00 | 0.00 | 67 | 1012.5 |
| 20260507085505 | 4 | 282 | 3.2 | 6.4 | 0.00 | 0.00 | 0.00 | 66 | 1012.5 |
| 20260507085006 | 3 | 279 | 3.2 | 6.4 | 0.00 | 0.00 | 0.00 | 67 | 1012.5 |
| 20260507084525 | 4 | 273 | 3.2 | 6.4 | 0.00 | 0.00 | 0.00 | 67 | 1012.5 |
| 20260507084002 | 4 | 277 | 1.6 | 6.4 | 0.00 | 0.00 | 0.00 | 67 | 1012.5 |
| 20260507083506 | 4 | 284 | 3.2 | 9.7 | 0.00 | 0.00 | 0.00 | 66 | 1012.5 |
| 20260507082005 | 4 | 279 | 3.2 | 6.4 | 0.00 | 0.00 | 0.00 | 66 | 1012.6 |
| 20260507081519 | 4 | 274 | 3.2 | 8.0 | 0.00 | 0.00 | 0.00 | 66 | 1012.6 |
| 20260507080506 | 4 | 286 | 3.2 | 8.0 | 0.00 | 0.00 | 0.00 | 67 | 1012.7 |
| 20260507080015 | 4 | 281 | 3.2 | 6.4 | 0.00 | 0.00 | 0.00 | 66 | 1012.8 |
| 20260507074515 | 4 | 286 | 3.2 | 9.7 | 0.00 | 0.00 | 0.00 | 67 | 1012.9 |
| 20260507073011 | 4 | 300 | 4.8 | 9.7 | 0.00 | 0.00 | 0.00 | 66 | 1012.8 |
| 20260507072506 | 4 | 285 | 3.2 | 8.0 | 0.00 | 0.00 | 0.00 | 66 | 1012.8 |
| 20260507072008 | 5 | 298 | 3.2 | 9.7 | 0.00 | 0.00 | 0.00 | 65 | 1012.8 |
| 20260507071526 | 5 | 305 | 3.2 | 9.7 | 0.00 | 0.00 | 0.00 | 65 | 1012.8 |
| 20260507071008 | 5 | 313 | 3.2 | 9.7 | 0.00 | 0.00 | 0.00 | 65 | 1012.8 |
| 20260507070507 | 5 | 312 | 3.2 | 11.3 | 0.00 | 0.00 | 0.00 | 65 | 1012.8 |
| 20260507070015 | 5 | 284 | 4.8 | 11.3 | 0.00 | 0.00 | 0.00 | 65 | 1012.7 |
| 20260507064517 | 5 | 311 | 4.8 | 14.5 | 0.00 | 0.00 | 0.00 | 64 | 1013.0 |
| 20260507063505 | 5 | 323 | 4.8 | 12.9 | 0.00 | 0.00 | 0.00 | 64 | 1013.0 |
| 20260507063019 | 5 | 306 | 6.4 | 14.5 | 0.00 | 0.00 | 0.00 | 64 | 1013.1 |
| 20260507062007 | 6 | 281 | 6.4 | 12.9 | 0.00 | 0.00 | 0.00 | 64 | 1013.0 |
| 20260507061518 | 6 | 319 | 6.4 | 14.5 | 0.00 | 0.00 | 0.00 | 64 | 1013.0 |
| 20260507061010 | 6 | 311 | 3.2 | 16.1 | 0.00 | 0.00 | 0.00 | 63 | 1013.0 |
| 20260507060508 | 6 | 326 | 6.4 | 17.7 | 0.00 | 0.00 | 0.00 | 63 | 1013.0 |
| 20260507060008 | 6 | 302 | 6.4 | 17.7 | 0.00 | 0.00 | 0.00 | 63 | 1013.0 |
| 20260507055004 | 6 | 300 | 9.7 | 14.5 | 0.00 | 0.00 | 0.00 | 62 | 1012.9 |
| 20260507054508 | 6 | 320 | 4.8 | 16.1 | 0.00 | 0.00 | 0.00 | 62 | 1012.9 |
| 20260507054004 | 7 | 326 | 8.0 | 16.1 | 0.00 | 0.00 | 0.00 | 61 | 1012.9 |
| 20260507053008 | 6 | 297 | 4.8 | 8.0 | 0.00 | 0.00 | 0.00 | 62 | 1013.0 |
| 20260507052506 | 6 | 270 | 3.2 | 6.4 | 0.00 | 0.00 | 0.00 | 62 | 1013.0 |
| 20260507052010 | 6 | 298 | 3.2 | 6.4 | 0.00 | 0.00 | 0.00 | 62 | 1013.0 |
| 20260507051524 | 6 | 290 | 1.6 | 4.8 | 0.00 | 0.00 | 0.00 | 62 | 1013.0 |
| 20260507051002 | 6 | 275 | 0.0 | 0.0 | 0.00 | 0.00 | 0.00 | 63 | 1013.0 |
| 20260507050505 | 6 | 275 | 0.0 | 3.2 | 0.00 | 0.00 | 0.00 | 63 | 1013.0 |
| 20260507050006 | 6 | 275 | 0.0 | 4.8 | 0.00 | 0.00 | 0.00 | 61 | 1013.0 |
| 20260507044525 | 6 | 309 | 0.0 | 0.0 | 0.00 | 0.00 | 0.00 | 68 | 1013.1 |
| 20260507043502 | 6 | 336 | 0.0 | 0.0 | 0.00 | 0.00 | 0.00 | 66 | 1013.0 |
| 20260507043018 | 6 | 336 | 0.0 | 0.0 | 0.00 | 0.00 | 0.00 | 66 | 1013.0 |
| 20260507041517 | 6 | 336 | 0.0 | 0.0 | 0.00 | 0.00 | 0.00 | 64 | 1013.2 |
| 20260507041005 | 6 | 336 | 0.0 | 0.0 | 0.00 | 0.00 | 0.00 | 62 | 1013.2 |
| 20260507040011 | 6 | 336 | 0.0 | 0.0 | 0.00 | 0.00 | 0.00 | 61 | 1013.3 |
| 20260507035506 | 6 | 336 | 0.0 | 0.0 | 0.00 | 0.00 | 0.00 | 61 | 1013.3 |
| 20260507035007 | 6 | 336 | 0.0 | 1.6 | 0.00 | 0.00 | 0.00 | 62 | 1013.3 |
| 20260507033014 | 6 | 319 | 1.6 | 6.4 | 0.00 | 0.00 | 0.00 | 59 | 1013.2 |
| 20260507032504 | 7 | 319 | 1.6 | 6.4 | 0.00 | 0.00 | 0.00 | 55 | 1013.3 |
| 20260507032005 | 7 | 302 | 3.2 | 6.4 | 0.00 | 0.00 | 0.00 | 54 | 1013.3 |
| 20260507030503 | 7 | 285 | 1.6 | 9.7 | 0.00 | 0.00 | 0.00 | 52 | 1013.3 |
| 20260507024515 | 8 | 285 | 3.2 | 9.7 | 0.00 | 0.00 | 0.00 | 50 | 1013.4 |
| 20260507024006 | 8 | 286 | 4.8 | 9.7 | 0.00 | 0.00 | 0.00 | 50 | 1013.3 |
| 20260507023012 | 8 | 292 | 4.8 | 11.3 | 0.00 | 0.00 | 0.00 | 50 | 1013.4 |
| 20260507022003 | 8 | 292 | 3.2 | 6.4 | 0.00 | 0.00 | 0.00 | 49 | 1013.3 |
| 20260507021521 | 8 | 287 | 3.2 | 6.4 | 0.00 | 0.00 | 0.00 | 49 | 1013.3 |
| 20260507021005 | 8 | 259 | 3.2 | 9.7 | 0.00 | 0.00 | 0.00 | 49 | 1013.3 |
| 20260507020030 | 8 | 266 | 4.8 | 11.3 | 0.00 | 0.00 | 0.00 | 48 | 1013.1 |
| 20260507015502 | 8 | 285 | 4.8 | 9.7 | 0.00 | 0.00 | 0.00 | 47 | 1013.0 |
| 20260507015005 | 8 | 233 | 3.2 | 9.7 | 0.00 | 0.00 | 0.00 | 47 | 1013.0 |
| 20260507014525 | 8 | 299 | 3.2 | 9.7 | 0.00 | 0.00 | 0.00 | 47 | 1012.9 |
| 20260507013502 | 8 | 263 | 3.2 | 11.3 | 0.00 | 0.00 | 0.00 | 47 | 1012.9 |
| 20260507013024 | 8 | 244 | 4.8 | 11.3 | 0.00 | 0.00 | 0.00 | 49 | 1012.9 |
| 20260507012511 | 8 | 236 | 3.2 | 11.3 | 0.00 | 0.00 | 0.00 | 48 | 1012.9 |
| 20260507011518 | 8 | 252 | 3.2 | 9.7 | 0.00 | 0.00 | 0.00 | 46 | 1013.0 |
| 20260507010029 | 9 | 234 | 3.2 | 14.5 | 0.00 | 0.00 | 0.00 | 46 | 1012.9 |
| 20260507005008 | 9 | 240 | 6.4 | 12.9 | 0.00 | 0.00 | 0.00 | 44 | 1012.8 |
| 20260507004005 | 9 | 290 | 3.2 | 12.9 | 0.00 | 0.00 | 0.00 | 45 | 1012.7 |
| 20260507003507 | 9 | 263 | 4.8 | 14.5 | 0.00 | 0.00 | 0.00 | 45 | 1012.7 |
| 20260507002504 | 9 | 269 | 6.4 | 14.5 | 0.00 | 0.00 | 0.00 | 44 | 1012.6 |
| 20260507002011 | 9 | 262 | 4.8 | 11.3 | 0.00 | 0.00 | 0.00 | 44 | 1012.6 |
| 20260507001535 | 9 | 311 | 4.8 | 12.9 | 0.00 | 0.00 | 0.00 | 43 | 1012.5 |
| 20260507000505 | 9 | 258 | 8.0 | 17.7 | 0.00 | 0.00 | 0.00 | 44 | 1012.4 |
| 20260507000022 | 10 | 294 | 4.8 | 19.3 | 0.00 | 0.00 | 0.00 | 43 | 1012.4 |
| 20260506235506 | 10 | 272 | 8.0 | 19.3 | 0.00 | 0.00 | 0.00 | 43 | 1012.4 |
| 20260506234518 | 10 | 267 | 8.0 | 17.7 | 0.00 | 0.00 | 0.00 | 43 | 1012.5 |
| 20260506233506 | 10 | 252 | 3.2 | 12.9 | 0.00 | 0.00 | 0.00 | 42 | 1012.4 |
| 20260506233019 | 10 | 277 | 6.4 | 16.1 | 0.00 | 0.00 | 0.00 | 42 | 1012.5 |
| 20260506232507 | 10 | 296 | 6.4 | 16.1 | 0.00 | 0.00 | 0.00 | 41 | 1012.4 |
| 20260506232011 | 10 | 290 | 8.0 | 17.7 | 0.00 | 0.00 | 0.00 | 42 | 1012.4 |
| 20260506231506 | 10 | 255 | 9.7 | 22.5 | 0.00 | 0.00 | 0.00 | 41 | 1012.4 |
| 20260506231003 | 10 | 274 | 9.7 | 22.5 | 0.00 | 0.00 | 0.00 | 40 | 1012.5 |
| 20260506230502 | 10 | 315 | 11.3 | 20.9 | 0.00 | 0.00 | 0.00 | 41 | 1012.4 |
| 20260506230003 | 10 | 231 | 6.4 | 20.9 | 0.00 | 0.00 | 0.00 | 41 | 1012.4 |
| 20260506225503 | 11 | 265 | 9.7 | 25.7 | 0.00 | 0.00 | 0.00 | 40 | 1012.3 |
| 20260506225003 | 10 | 263 | 11.3 | 25.7 | 0.00 | 0.00 | 0.00 | 40 | 1012.4 |
| 20260506224504 | 11 | 262 | 9.7 | 24.1 | 0.00 | 0.00 | 0.00 | 40 | 1012.3 |
| 20260506224004 | 11 | 277 | 14.5 | 24.1 | 0.00 | 0.00 | 0.00 | 40 | 1012.4 |
| 20260506223502 | 11 | 285 | 9.7 | 24.1 | 0.00 | 0.00 | 0.00 | 40 | 1012.3 |
| 20260506221504 | 11 | 257 | 12.9 | 24.1 | 0.00 | 0.00 | 0.00 | 40 | 1012.3 |
| 20260506221003 | 11 | 315 | 11.3 | 27.4 | 0.00 | 0.00 | 0.00 | 39 | 1012.2 |
| 20260506220503 | 11 | 311 | 12.9 | 27.4 | 0.00 | 0.00 | 0.00 | 38 | 1012.2 |
| 20260506220006 | 11 | 260 | 4.8 | 19.3 | 0.00 | 0.00 | 0.00 | 40 | 1012.1 |
| 20260506215502 | 11 | 289 | 9.7 | 29.0 | 0.00 | 0.00 | 0.00 | 38 | 1012.1 |
| 20260506215003 | 11 | 286 | 9.7 | 35.4 | 0.00 | 0.00 | 0.00 | 38 | 1012.2 |
| 20260506214505 | 11 | 284 | 14.5 | 35.4 | 0.00 | 0.00 | 0.00 | 39 | 1012.1 |
| 20260506214005 | 11 | 307 | 12.9 | 25.7 | 0.00 | 0.00 | 0.00 | 39 | 1012.2 |
| 20260506213503 | 11 | 304 | 16.1 | 29.0 | 0.00 | 0.00 | 0.00 | 39 | 1012.2 |
| 20260506213004 | 11 | 279 | 14.5 | 29.0 | 0.00 | 0.00 | 0.00 | 38 | 1012.2 |
| 20260506211504 | 11 | 298 | 12.9 | 20.9 | 0.00 | 0.00 | 0.00 | 39 | 1012.2 |
| 20260506211003 | 11 | 277 | 12.9 | 29.0 | 0.00 | 0.00 | 0.00 | 39 | 1012.2 |
| 20260506210502 | 11 | 221 | 14.5 | 29.0 | 0.00 | 0.00 | 0.00 | 39 | 1012.2 |
| 20260506205503 | 11 | 290 | 14.5 | 38.6 | 0.00 | 0.00 | 0.00 | 39 | 1012.3 |
| 20260506205003 | 11 | 322 | 11.3 | 25.7 | 0.00 | 0.00 | 0.00 | 39 | 1012.3 |
| 20260506204505 | 11 | 272 | 17.7 | 25.7 | 0.00 | 0.00 | 0.00 | 39 | 1012.3 |
| 20260506204002 | 11 | 307 | 9.7 | 25.7 | 0.00 | 0.00 | 0.00 | 37 | 1012.3 |
| 20260506203504 | 12 | 304 | 9.7 | 24.1 | 0.00 | 0.00 | 0.00 | 37 | 1012.3 |